Retour au catalogue

BREEZE-M DEB

ActifHEO
NORAD 38588·DEBRIS·🇷🇺 Russia

Lancé Mar 14, 2008 depuis Baikonur Cosmodrome

Loading…

Prochains Passages (prochaines 24 heures)

TLE

FraisSource: Space-Track

Époque: Sep 12, 2026, 12:06 UTC

1 38588U 08011AK  26255.50428145 -.00007662  00000-0 -75763-1 0  9993
2 38588  50.0749 353.6852 6220680 125.0550 309.8952  3.42014673172021

Suivez BREEZE-M DEB en temps réel avec AllMySat

Download on the App Store